GW4205 Weather Reports


Display with metric or nautical units.
time (UTC)temp
F
wind
direction
speed
MPH
gust
MPH
rain 1hr
in
rain 24hr
in
rain mn
in
humidity
%
barometer
mb
20260506072704 54 323 3.0 3.0 0.00 0.04 0.00 93 1022.5
20260506071803 54 321 3.0 3.0 0.00 0.05 0.00 93 1022.2
20260506070903 54 334 2.0 3.0 0.00 0.05 0.00 93 1022.1
20260506070115 54 333 1.0 3.0 0.00 0.05 0.00 93 1022.1
20260506061803 55 329 3.0 4.0 0.00 0.05 0.05 91 1021.5
20260506060906 55 333 2.0 3.0 0.00 0.05 0.05 91 1021.5
20260506050907 57 0 0.0 0.0 0.00 0.05 0.05 91 1020.9
20260506044503 58 344 0.0 1.0 0.00 0.05 0.05 89 1020.7
20260506043815 58 328 1.0 1.0 0.00 0.05 0.05 88 1020.7
20260506042704 58 339 0.0 1.0 0.00 0.05 0.05 88 1020.4
20260506042014 59 340 1.0 2.0 0.00 0.05 0.05 87 1020.5
20260506040903 59 335 2.0 2.0 0.00 0.05 0.05 87 1020.0
20260506040006 59 334 1.0 2.0 0.00 0.05 0.05 87 1020.1
20260506035403 59 336 1.0 1.0 0.00 0.05 0.05 87 1020.1
20260506034505 59 329 1.0 3.0 0.00 0.05 0.05 86 1020.0
20260506033604 60 326 3.0 3.0 0.00 0.05 0.05 86 1019.9
20260506032914 60 330 2.0 3.0 0.00 0.05 0.05 86 1019.8
20260506032015 60 331 2.0 3.0 0.00 0.05 0.05 85 1019.6
20260506030909 60 334 1.0 2.0 0.00 0.05 0.05 85 1019.5
20260506030007 61 333 2.0 2.0 0.00 0.05 0.05 84 1019.5
20260506025404 61 337 2.0 3.0 0.00 0.05 0.05 83 1019.7
20260506024715 62 339 3.0 3.0 0.00 0.05 0.05 82 1019.6
20260506023814 62 327 2.0 2.0 0.00 0.05 0.05 80 1019.4
20260506022705 63 328 3.0 3.0 0.00 0.05 0.05 79 1019.5
20260506021804 63 326 3.0 3.0 0.00 0.05 0.05 78 1019.1
20260506020907 63 312 3.0 4.0 0.00 0.05 0.05 77 1019.2
20260506020003 64 292 4.0 6.0 0.00 0.05 0.05 76 1019.1
20260506015404 63 271 5.0 7.0 0.00 0.05 0.05 77 1019.0
20260506014503 63 243 5.0 7.0 0.00 0.05 0.05 77 1019.1
20260506013612 64 302 4.0 4.0 0.00 0.05 0.05 76 1019.1
20260506012704 64 294 5.0 7.0 0.00 0.05 0.05 76 1019.1
20260506011803 64 245 5.0 7.0 0.00 0.05 0.05 77 1019.0
20260506010905 65 283 4.0 6.0 0.00 0.05 0.05 75 1019.3
20260506010007 66 274 4.0 6.0 0.00 0.05 0.05 73 1019.3
20260506005408 66 269 4.0 6.0 0.00 0.05 0.05 74 1019.2
20260506004509 66 275 3.0 4.0 0.00 0.05 0.05 73 1019.4
20260506003604 66 296 4.0 4.0 0.00 0.05 0.05 73 1019.4
20260506002912 65 302 2.0 3.0 0.00 0.05 0.05 75 1019.4
20260506002014 64 316 3.0 3.0 0.00 0.05 0.05 76 1019.1
20260506000904 64 272 3.0 4.0 0.00 0.05 0.05 74 1019.1
20260506000215 64 288 3.0 6.0 0.00 0.05 0.05 74 1019.1
20260505235404 64 271 4.0 6.0 0.00 0.05 0.05 76 1019.1
20260505234714 64 320 3.0 3.0 0.00 0.05 0.05 75 1019.0
20260505233604 64 320 4.0 6.0 0.00 0.05 0.05 75 1019.0
20260505232704 65 298 5.0 7.0 0.00 0.05 0.05 73 1019.0
20260505231804 65 320 4.0 4.0 0.00 0.05 0.05 75 1019.1
20260505231115 64 293 5.0 7.0 0.00 0.05 0.05 76 1019.2
20260505230006 63 290 4.0 6.0 0.00 0.05 0.05 77 1019.0
20260505225403 62 311 5.0 7.0 0.00 0.05 0.05 79 1019.1
20260505224504 63 288 5.0 7.0 0.00 0.05 0.05 78 1019.3
20260505223603 63 302 5.0 7.0 0.00 0.05 0.05 77 1019.2
20260505222704 64 305 5.0 7.0 0.00 0.05 0.05 77 1019.3
20260505221803 64 295 6.0 8.0 0.00 0.05 0.05 76 1019.5
20260505220904 63 313 6.0 8.0 0.00 0.05 0.05 77 1019.4
20260505220005 63 316 7.0 10.0 0.00 0.05 0.05 78 1019.5
20260505215404 62 321 6.0 10.0 0.00 0.05 0.05 79 1019.6
20260505214715 63 308 4.0 4.0 0.00 0.05 0.05 76 1019.4
20260505213604 63 320 5.0 7.0 0.00 0.05 0.05 76 1019.7
20260505212703 61 313 5.0 7.0 0.00 0.05 0.05 80 1019.5
20260505211804 61 309 6.0 7.0 0.00 0.05 0.05 80 1019.6
20260505210906 63 305 5.0 7.0 0.00 0.05 0.05 79 1019.5
20260505210007 62 293 7.0 9.0 0.00 0.05 0.05 79 1019.5
20260505205404 63 261 6.0 9.0 0.00 0.05 0.05 76 1019.4
20260505204504 62 273 5.0 7.0 0.00 0.05 0.05 76 1019.6
20260505203603 61 306 5.0 7.0 0.00 0.05 0.05 80 1019.4
20260505202709 60 310 4.0 7.0 0.00 0.05 0.05 81 1020.0
20260505201804 61 326 5.0 7.0 0.00 0.05 0.05 79 1020.0
20260505201114 61 330 5.0 6.0 0.00 0.05 0.05 79 1020.0
20260505200005 61 306 4.0 6.0 0.00 0.05 0.05 79 1019.7
20260505195404 60 313 5.0 7.0 0.00 0.05 0.05 79 1019.9
20260505194505 60 320 5.0 7.0 0.00 0.05 0.05 79 1020.1
20260505193603 60 329 4.0 6.0 0.00 0.05 0.05 80 1020.0
20260505192705 61 293 4.0 4.0 0.00 0.05 0.05 78 1019.9
20260505191804 60 325 5.0 7.0 0.00 0.05 0.05 79 1019.9
20260505190904 60 316 5.0 8.0 0.00 0.05 0.05 79 1020.0
20260505190006 59 293 5.0 8.0 0.00 0.05 0.05 80 1020.0
20260505185403 60 263 5.0 7.0 0.00 0.05 0.05 80 1020.1
20260505184505 60 281 5.0 6.0 0.00 0.05 0.05 79 1019.8
20260505183604 61 323 6.0 7.0 0.00 0.05 0.05 78 1019.6
20260505182705 62 276 6.0 10.0 0.00 0.05 0.05 76 1019.6
20260505181806 61 309 6.0 10.0 0.00 0.05 0.05 78 1019.6
20260505180904 61 323 5.0 8.0 0.00 0.05 0.05 79 1019.7
20260505180008 61 310 6.0 9.0 0.00 0.05 0.05 80 1019.5
20260505175404 59 313 6.0 9.0 0.00 0.05 0.05 81 1019.5
20260505174713 60 320 5.0 6.0 0.00 0.05 0.05 81 1019.6
20260505173604 59 329 4.0 6.0 0.00 0.05 0.05 85 1019.5
20260505172706 58 302 4.0 4.0 0.00 0.05 0.05 86 1019.2
20260505172015 58 326 3.0 4.0 0.00 0.05 0.05 86 1019.4
20260505170904 57 330 3.0 3.0 0.00 0.05 0.05 89 1019.2
20260505170013 56 317 2.0 3.0 0.00 0.05 0.05 90 1019.2
20260505165405 56 331 2.0 4.0 0.00 0.05 0.05 90 1019.3
20260505164505 55 323 4.0 4.0 0.00 0.05 0.05 93 1019.3
20260505163603 55 322 3.0 6.0 0.00 0.05 0.05 93 1019.3
20260505162703 55 327 4.0 6.0 0.00 0.05 0.05 93 1019.1
20260505162015 55 309 2.0 3.0 0.00 0.05 0.05 94 1019.3
20260505161114 54 322 4.0 4.0 0.00 0.05 0.05 95 1019.1
20260505152704 52 330 2.0 3.0 0.00 0.05 0.05 99 1019.2
20260505151804 53 326 1.0 2.0 0.00 0.05 0.05 99 1019.1
20260505150905 52 329 2.0 4.0 0.00 0.05 0.05 99 1018.8
20260505140225 52 334 1.0 2.0 0.00 0.05 0.05 99 1018.6
20260505124503 51 333 1.0 2.0 0.00 0.05 0.05 99 1018.2
20260505123815 51 329 1.0 2.0 0.00 0.05 0.05 99 1018.1
20260505122703 52 338 0.0 1.0 0.00 0.05 0.05 99 1018.0
20260505121803 51 332 0.0 2.0 0.00 0.05 0.05 99 1018.1
20260505120904 51 330 1.0 2.0 0.00 0.05 0.05 99 1018.0
20260505120005 51 0 0.0 0.0 0.00 0.05 0.05 99 1018.1
20260505115404 51 0 0.0 0.0 0.00 0.05 0.05 99 1018.4
20260505114507 51 333 1.0 2.0 0.00 0.05 0.05 99 1018.4
20260505113603 51 329 2.0 2.0 0.00 0.05 0.05 99 1018.2
20260505112916 51 334 1.0 2.0 0.00 0.05 0.05 99 1018.4
20260505111803 51 339 2.0 3.0 0.00 0.05 0.05 99 1018.4
20260505111112 51 336 1.0 2.0 0.00 0.05 0.05 99 1018.2
20260505101804 51 0 0.0 0.0 0.00 0.05 0.05 99 1018.3
20260505100904 51 323 0.0 1.0 0.00 0.05 0.05 99 1018.6
20260505100003 50 332 2.0 3.0 0.00 0.05 0.05 99 1018.3
20260505095615 50 335 2.0 3.0 0.00 0.05 0.05 99 1018.6
20260505094503 51 328 2.0 3.0 0.00 0.05 0.05 99 1018.4
20260505093603 51 324 4.0 6.0 0.01 0.05 0.05 99 1018.5
20260505092705 51 331 4.0 6.0 0.01 0.05 0.05 99 1018.9
20260505091804 51 331 4.0 7.0 0.01 0.05 0.05 99 1018.8
20260505090904 50 329 3.0 4.0 0.02 0.05 0.05 99 1019.0
20260505090006 51 331 2.0 3.0 0.02 0.05 0.05 99 1018.9
20260505085404 51 325 3.0 4.0 0.02 0.05 0.05 99 1018.9
20260505084714 51 327 4.0 4.0 0.03 0.05 0.05 99 1018.8
20260505083605 51 330 3.0 4.0 0.02 0.04 0.04 99 1018.9
20260505082704 51 331 4.0 4.0 0.03 0.04 0.04 99 1018.7
20260505081803 51 332 4.0 4.0 0.04 0.04 0.04 99 1018.7
20260505081113 51 324 4.0 6.0 0.04 0.04 0.04 99 1018.9